Time,TemperatureF,DewpointF,PressureIn,WindDirection,WindDirectionDegrees,WindSpeedMPH,WindSpeedGustMPH,Humidity,HourlyPrecipIn,Conditions,Clouds,dailyrainin,SoftwareType,DateUTC
2013-06-06 10:04:00,69.1,28.6,29.91,WNW,298,1.0,1.0,22,0.00,,,0.00,Wunderground v.1.15,2013-06-06 16:04:00,
2013-06-06 10:06:00,69.4,31.0,29.91,WNW,298,1.0,1.0,24,0.00,,,0.00,Wunderground v.1.15,2013-06-06 16:06:00,
2013-06-06 10:08:00,69.8,26.9,29.91,NW,309,1.0,1.0,20,0.00,,,0.00,Wunderground v.1.15,2013-06-06 16:08:00,
2013-06-06 10:12:00,69.9,27.0,29.91,NW,308,1.0,2.0,20,0.00,,,0.00,Wunderground v.1.15,2013-06-06 16:12:00,
2013-06-06 10:14:00,69.9,25.7,29.91,NW,308,2.0,2.0,19,0.00,,,0.00,Wunderground v.1.15,2013-06-06 16:14:00,
2013-06-06 10:16:00,69.9,25.7,29.94,NW,308,2.0,2.0,19,0.00,,,0.00,Wunderground v.1.15,2013-06-06 16:16:00,
2013-06-06 10:18:00,70.1,27.1,29.94,NW,308,2.0,2.0,20,0.00,,,0.00,Wunderground v.1.15,2013-06-06 16:18:00,
2013-06-06 10:22:00,70.6,27.5,29.94,NW,308,1.0,4.0,20,0.00,,,0.00,Wunderground v.1.15,2013-06-06 16:22:00,
2013-06-06 10:24:00,70.8,28.9,29.94,NW,305,1.0,4.0,21,0.00,,,0.00,Wunderground v.1.15,2013-06-06 16:24:00,
2013-06-06 10:26:00,70.8,28.9,29.94,NW,305,1.0,4.0,21,0.00,,,0.00,Wunderground v.1.15,2013-06-06 16:26:00,
2013-06-06 10:30:00,70.8,26.5,29.94,NW,305,2.0,2.0,19,0.00,,,0.00,Wunderground v.1.15,2013-06-06 16:30:00,
2013-06-06 10:32:00,71.1,30.3,29.92,NW,305,2.0,2.0,22,0.00,,,0.00,Wunderground v.1.15,2013-06-06 16:32:00,
2013-06-06 10:36:00,71.6,28.4,29.92,West,261,2.0,2.0,20,0.00,,,0.00,Wunderground v.1.15,2013-06-06 16:36:00,
2013-06-06 10:40:00,72.0,26.1,29.92,NNW,348,2.0,2.0,18,0.00,,,0.00,Wunderground v.1.15,2013-06-06 16:40:00,
2013-06-06 10:42:00,72.0,29.9,29.92,NW,315,2.0,2.0,21,0.00,,,0.00,Wunderground v.1.15,2013-06-06 16:42:00,
2013-06-06 10:44:00,72.1,28.8,29.92,West,277,2.0,3.0,20,0.00,,,0.00,Wunderground v.1.15,2013-06-06 16:44:00,
2013-06-06 10:46:00,72.3,27.7,29.92,WNW,287,2.0,3.0,19,0.00,,,0.00,Wunderground v.1.15,2013-06-06 16:46:00,
2013-06-06 10:48:00,72.5,29.1,29.92,WNW,287,2.0,3.0,20,0.00,,,0.00,Wunderground v.1.15,2013-06-06 16:48:00,
2013-06-06 10:50:00,73.0,28.3,29.92,WNW,288,1.0,1.0,19,0.00,,,0.00,Wunderground v.1.15,2013-06-06 16:50:00,
2013-06-06 10:52:00,73.2,29.7,29.92,WNW,287,1.0,1.0,20,0.00,,,0.00,Wunderground v.1.15,2013-06-06 16:52:00,
2013-06-06 10:54:00,73.3,27.2,29.92,WNW,288,1.0,2.0,18,0.00,,,0.00,Wunderground v.1.15,2013-06-06 16:54:00,
2013-06-06 10:56:00,73.5,27.4,29.92,WNW,283,1.0,2.0,18,0.00,,,0.00,Wunderground v.1.15,2013-06-06 16:56:00,
2013-06-06 11:00:00,73.9,29.0,29.92,WNW,283,2.0,2.0,19,0.00,,,0.00,Wunderground v.1.15,2013-06-06 17:00:00,
2013-06-06 11:02:00,74.0,30.4,29.90,WNW,283,2.0,2.0,20,0.00,,,0.00,Wunderground v.1.15,2013-06-06 17:02:00,
2013-06-06 11:04:00,74.2,29.3,29.90,WNW,284,1.0,2.0,19,0.00,,,0.00,Wunderground v.1.15,2013-06-06 17:04:00,
2013-06-06 11:06:00,74.0,27.8,29.90,WNW,283,1.0,2.0,18,0.00,,,0.00,Wunderground v.1.15,2013-06-06 17:06:00,
2013-06-06 11:08:00,74.2,27.9,29.90,WNW,284,1.0,2.0,18,0.00,,,0.00,Wunderground v.1.15,2013-06-06 17:08:00,
2013-06-06 11:10:00,74.6,26.9,29.90,WNW,284,1.0,1.0,17,0.00,,,0.00,Wunderground v.1.15,2013-06-06 17:10:00,
2013-06-06 11:12:00,74.9,27.1,29.90,WNW,284,1.0,2.0,17,0.00,,,0.00,Wunderground v.1.15,2013-06-06 17:12:00,
2013-06-06 11:14:00,75.1,31.3,29.90,WNW,286,1.0,4.0,20,0.00,,,0.00,Wunderground v.1.15,2013-06-06 17:14:00,
2013-06-06 11:16:00,75.3,31.4,29.90,WNW,283,1.0,4.0,20,0.00,,,0.00,Wunderground v.1.15,2013-06-06 17:16:00,
2013-06-06 11:20:00,75.4,28.9,29.90,NNW,341,2.0,5.0,18,0.00,,,0.00,Wunderground v.1.15,2013-06-06 17:20:00,
2013-06-06 11:26:00,74.6,26.9,29.90,NW,307,3.0,6.0,17,0.00,,,0.00,Wunderground v.1.15,2013-06-06 17:26:00,
2013-06-06 11:32:00,74.9,29.8,29.90,West,265,2.0,5.0,19,0.00,,,0.00,Wunderground v.1.15,2013-06-06 17:32:00,
2013-06-06 11:34:00,75.1,30.0,29.90,NNW,333,2.0,5.0,19,0.00,,,0.00,Wunderground v.1.15,2013-06-06 17:34:00,
2013-06-06 11:40:00,75.6,29.1,29.90,WNW,298,2.0,6.0,18,0.00,,,0.00,Wunderground v.1.15,2013-06-06 17:40:00,
2013-06-06 11:42:00,75.6,27.7,29.90,NNW,336,2.0,6.0,17,0.00,,,0.00,Wunderground v.1.15,2013-06-06 17:42:00,
2013-06-06 11:46:00,75.6,27.7,29.89,NNW,336,2.0,6.0,17,0.00,,,0.00,Wunderground v.1.15,2013-06-06 17:46:00,
2013-06-06 11:48:00,75.6,26.2,29.89,NNW,328,2.0,6.0,16,0.00,,,0.00,Wunderground v.1.15,2013-06-06 17:48:00,
2013-06-06 11:50:00,75.8,27.8,29.89,NW,323,2.0,2.0,17,0.00,,,0.00,Wunderground v.1.15,2013-06-06 17:50:00,
2013-06-06 11:52:00,75.6,24.7,29.89,NW,323,2.0,2.0,15,0.00,,,0.00,Wunderground v.1.15,2013-06-06 17:52:00,
2013-06-06 11:56:00,75.8,26.4,29.89,North,5,2.0,3.0,16,0.00,,,0.00,Wunderground v.1.15,2013-06-06 17:56:00,
2013-06-06 11:58:00,76.0,29.4,29.89,NW,314,2.0,3.0,18,0.00,,,0.00,Wunderground v.1.15,2013-06-06 17:58:00,
2013-06-06 12:00:00,76.1,26.6,29.89,NW,322,2.0,2.0,16,0.00,,,0.00,Wunderground v.1.15,2013-06-06 18:00:00,
2013-06-06 12:02:00,76.3,28.3,29.89,NW,322,2.0,2.0,17,0.00,,,0.00,Wunderground v.1.15,2013-06-06 18:02:00,
2013-06-06 12:06:00,76.7,27.1,29.89,NNW,348,2.0,6.0,16,0.00,,,0.00,Wunderground v.1.15,2013-06-06 18:06:00,
2013-06-06 12:08:00,76.7,27.1,29.89,WNW,300,2.0,6.0,16,0.00,,,0.00,Wunderground v.1.15,2013-06-06 18:08:00,
2013-06-06 12:10:00,76.8,27.2,29.89,NW,309,2.0,4.0,16,0.00,,,0.00,Wunderground v.1.15,2013-06-06 18:10:00,
2013-06-06 12:12:00,76.8,24.0,29.89,NW,311,3.0,4.0,14,0.00,,,0.00,Wunderground v.1.15,2013-06-06 18:12:00,
2013-06-06 12:14:00,77.0,25.8,29.89,NW,311,3.0,4.0,15,0.00,,,0.00,Wunderground v.1.15,2013-06-06 18:14:00,
2013-06-06 12:16:00,77.0,25.8,29.88,NW,305,2.0,4.0,15,0.00,,,0.00,Wunderground v.1.15,2013-06-06 18:16:00,
2013-06-06 12:18:00,77.2,27.5,29.88,WNW,302,2.0,5.0,16,0.00,,,0.00,Wunderground v.1.15,2013-06-06 18:18:00,
2013-06-06 12:20:00,77.2,25.9,29.88,NNE,15,2.0,3.0,15,0.00,,,0.00,Wunderground v.1.15,2013-06-06 18:20:00,
2013-06-06 12:24:00,77.4,24.4,29.88,NW,319,2.0,3.0,14,0.00,,,0.00,Wunderground v.1.15,2013-06-06 18:24:00,
2013-06-06 12:30:00,78.1,25.0,29.88,NW,326,1.0,1.0,14,0.00,,,0.00,Wunderground v.1.15,2013-06-06 18:30:00,
2013-06-06 12:32:00,78.3,25.1,29.87,NW,325,1.0,4.0,14,0.00,,,0.00,Wunderground v.1.15,2013-06-06 18:32:00,
2013-06-06 12:34:00,78.5,25.3,29.87,NNW,328,1.0,4.0,14,0.00,,,0.00,Wunderground v.1.15,2013-06-06 18:34:00,
2013-06-06 12:38:00,78.1,23.2,29.87,NE,36,2.0,7.0,13,0.00,,,0.00,Wunderground v.1.15,2013-06-06 18:38:00,
2013-06-06 12:40:00,77.9,24.8,29.87,NE,34,1.0,1.0,14,0.00,,,0.00,Wunderground v.1.15,2013-06-06 18:40:00,
2013-06-06 12:42:00,78.1,26.7,29.87,NW,323,1.0,2.0,15,0.00,,,0.00,Wunderground v.1.15,2013-06-06 18:42:00,
2013-06-06 12:44:00,78.3,26.8,29.87,WNW,300,1.0,6.0,15,0.00,,,0.00,Wunderground v.1.15,2013-06-06 18:44:00,
2013-06-06 12:48:00,78.6,23.6,29.86,NW,314,1.0,6.0,13,0.00,,,0.00,Wunderground v.1.15,2013-06-06 18:48:00,
2013-06-06 12:50:00,78.6,27.1,29.86,WSW,245,2.0,2.0,15,0.00,,,0.00,Wunderground v.1.15,2013-06-06 18:50:00,
2013-06-06 12:52:00,79.0,28.9,29.86,WSW,244,2.0,2.0,16,0.00,,,0.00,Wunderground v.1.15,2013-06-06 18:52:00,
2013-06-06 12:54:00,79.4,26.0,29.86,NNW,341,1.0,2.0,14,0.00,,,0.00,Wunderground v.1.15,2013-06-06 18:54:00,
2013-06-06 12:56:00,79.6,26.2,29.86,NNW,337,1.0,5.0,14,0.00,,,0.00,Wunderground v.1.15,2013-06-06 18:56:00,
2013-06-06 13:00:00,79.4,24.2,29.86,NW,311,1.0,1.0,13,0.00,,,0.00,Wunderground v.1.15,2013-06-06 19:00:00,
2013-06-06 13:02:00,79.4,24.2,29.86,NW,317,2.0,2.0,13,0.00,,,0.00,Wunderground v.1.15,2013-06-06 19:02:00,
2013-06-06 13:08:00,79.9,26.4,29.86,NW,317,1.0,2.0,14,0.00,,,0.00,Wunderground v.1.15,2013-06-06 19:08:00,
2013-06-06 13:10:00,80.1,28.3,29.86,NW,317,1.0,1.0,15,0.00,,,0.00,Wunderground v.1.15,2013-06-06 19:10:00,
2013-06-06 13:14:00,80.1,26.6,29.86,NW,317,1.0,1.0,14,0.00,,,0.00,Wunderground v.1.15,2013-06-06 19:14:00,
2013-06-06 13:18:00,80.1,24.8,29.87,NW,316,1.0,1.0,13,0.00,,,0.00,Wunderground v.1.15,2013-06-06 19:18:00,
2013-06-06 13:20:00,80.3,26.7,29.87,NW,317,2.0,5.0,14,0.00,,,0.00,Wunderground v.1.15,2013-06-06 19:20:00,
2013-06-06 13:22:00,80.3,24.9,29.87,NNE,22,1.0,5.0,13,0.00,,,0.00,Wunderground v.1.15,2013-06-06 19:22:00,
2013-06-06 13:24:00,80.1,24.8,29.87,NW,317,1.0,5.0,13,0.00,,,0.00,Wunderground v.1.15,2013-06-06 19:24:00,
2013-06-06 13:26:00,80.1,26.6,29.87,North,32767,1.0,5.0,14,0.00,,,0.00,Wunderground v.1.15,2013-06-06 19:26:00,
2013-06-06 13:30:00,80.5,25.1,29.87,NW,312,2.0,3.0,13,0.00,,,0.00,Wunderground v.1.15,2013-06-06 19:30:00,
2013-06-06 13:32:00,80.5,25.1,29.85,NNE,21,2.0,3.0,13,0.00,,,0.00,Wunderground v.1.15,2013-06-06 19:32:00,
2013-06-06 13:38:00,80.3,26.7,29.85,NNW,327,2.0,4.0,14,0.00,,,0.00,Wunderground v.1.15,2013-06-06 19:38:00,
2013-06-06 13:40:00,80.3,26.7,29.85,NE,40,2.0,2.0,14,0.00,,,0.00,Wunderground v.1.15,2013-06-06 19:40:00,
2013-06-06 13:42:00,80.5,26.9,29.85,NNE,15,2.0,3.0,14,0.00,,,0.00,Wunderground v.1.15,2013-06-06 19:42:00,
2013-06-06 13:48:00,80.7,28.7,29.84,NW,325,1.0,3.0,15,0.00,,,0.00,Wunderground v.1.15,2013-06-06 19:48:00,
2013-06-06 13:54:00,81.1,29.1,29.84,North,5,2.0,5.0,15,0.00,,,0.00,Wunderground v.1.15,2013-06-06 19:54:00,
2013-06-06 13:58:00,81.2,27.4,29.84,NE,40,2.0,6.0,14,0.00,,,0.00,Wunderground v.1.15,2013-06-06 19:58:00,
2013-06-06 14:00:00,81.2,25.7,29.84,NNW,329,2.0,2.0,13,0.00,,,0.00,Wunderground v.1.15,2013-06-06 20:00:00,
2013-06-06 14:02:00,81.2,29.1,29.84,SSW,197,2.0,2.0,15,0.00,,,0.00,Wunderground v.1.15,2013-06-06 20:02:00,
2013-06-06 14:06:00,81.2,25.7,29.84,NNE,27,2.0,5.0,13,0.00,,,0.00,Wunderground v.1.15,2013-06-06 20:06:00,
2013-06-06 14:08:00,81.2,25.7,29.84,NW,316,2.0,5.0,13,0.00,,,0.00,Wunderground v.1.15,2013-06-06 20:08:00,
2013-06-06 14:14:00,81.2,25.7,29.84,NNW,341,2.0,5.0,13,0.00,,,0.00,Wunderground v.1.15,2013-06-06 20:14:00,
2013-06-06 14:18:00,81.1,21.6,29.85,NW,317,2.0,5.0,11,0.00,,,0.00,Wunderground v.1.15,2013-06-06 20:18:00,
2013-06-06 14:20:00,81.1,23.7,29.85,NW,317,2.0,2.0,12,0.00,,,0.00,Wunderground v.1.15,2013-06-06 20:20:00,
2013-06-06 14:24:00,81.4,21.8,29.85,NW,317,2.0,6.0,11,0.00,,,0.00,Wunderground v.1.15,2013-06-06 20:24:00,
2013-06-06 14:30:00,80.9,23.5,29.85,NW,319,2.0,2.0,12,0.00,,,0.00,Wunderground v.1.15,2013-06-06 20:30:00,
2013-06-06 14:32:00,80.9,23.5,29.84,North,5,2.0,4.0,12,0.00,,,0.00,Wunderground v.1.15,2013-06-06 20:32:00,
2013-06-06 14:34:00,81.1,25.6,29.84,NW,325,2.0,7.0,13,0.00,,,0.00,Wunderground v.1.15,2013-06-06 20:34:00,
2013-06-06 14:36:00,81.1,23.7,29.84,NNW,340,3.0,7.0,12,0.00,,,0.00,Wunderground v.1.15,2013-06-06 20:36:00,
2013-06-06 14:42:00,81.2,23.7,29.84,NNW,346,3.0,6.0,12,0.00,,,0.00,Wunderground v.1.15,2013-06-06 20:42:00,
2013-06-06 14:44:00,81.2,21.7,29.84,NW,309,3.0,6.0,11,0.00,,,0.00,Wunderground v.1.15,2013-06-06 20:44:00,
2013-06-06 14:46:00,81.2,23.7,29.83,NE,54,2.0,6.0,12,0.00,,,0.00,Wunderground v.1.15,2013-06-06 20:46:00,
2013-06-06 14:48:00,81.6,24.0,29.83,North,5,2.0,6.0,12,0.00,,,0.00,Wunderground v.1.15,2013-06-06 20:48:00,
2013-06-06 14:52:00,82.0,24.4,29.83,NW,325,2.0,6.0,12,0.00,,,0.00,Wunderground v.1.15,2013-06-06 20:52:00,
2013-06-06 14:54:00,82.0,26.3,29.83,NNW,329,2.0,6.0,13,0.00,,,0.00,Wunderground v.1.15,2013-06-06 20:54:00,
2013-06-06 14:56:00,82.0,24.4,29.83,NNW,333,3.0,6.0,12,0.00,,,0.00,Wunderground v.1.15,2013-06-06 20:56:00,
2013-06-06 14:58:00,82.0,24.4,29.83,North,32767,3.0,6.0,12,0.00,,,0.00,Wunderground v.1.15,2013-06-06 20:58:00,
2013-06-06 15:00:00,82.0,20.0,29.83,NNW,338,4.0,4.0,10,0.00,,,0.00,Wunderground v.1.15,2013-06-06 21:00:00,
2013-06-06 15:02:00,82.2,22.4,29.84,NNW,336,3.0,5.0,11,0.00,,,0.00,Wunderground v.1.15,2013-06-06 21:02:00,
2013-06-06 15:06:00,82.2,20.2,29.84,NNW,331,3.0,7.0,10,0.00,,,0.00,Wunderground v.1.15,2013-06-06 21:06:00,
2013-06-06 15:08:00,82.4,22.6,29.84,NW,315,3.0,7.0,11,0.00,,,0.00,Wunderground v.1.15,2013-06-06 21:08:00,
2013-06-06 15:10:00,82.2,20.2,29.84,NW,305,3.0,5.0,10,0.00,,,0.00,Wunderground v.1.15,2013-06-06 21:10:00,
2013-06-06 15:14:00,82.2,20.2,29.84,NNW,344,3.0,5.0,10,0.00,,,0.00,Wunderground v.1.15,2013-06-06 21:14:00,
2013-06-06 15:16:00,82.4,20.3,29.82,ENE,66,3.0,5.0,10,0.00,,,0.00,Wunderground v.1.15,2013-06-06 21:16:00,
2013-06-06 15:22:00,82.8,18.2,29.82,North,351,3.0,6.0,9,0.00,,,0.00,Wunderground v.1.15,2013-06-06 21:22:00,
2013-06-06 15:24:00,82.6,20.5,29.82,NW,325,3.0,11.0,10,0.00,,,0.00,Wunderground v.1.15,2013-06-06 21:24:00,
2013-06-06 15:26:00,82.4,17.9,29.82,NW,314,4.0,11.0,9,0.00,,,0.00,Wunderground v.1.15,2013-06-06 21:26:00,
2013-06-06 15:28:00,82.4,17.9,29.82,North,11,4.0,11.0,9,0.00,,,0.00,Wunderground v.1.15,2013-06-06 21:28:00,
2013-06-06 15:32:00,82.4,20.3,29.82,NNE,32,5.0,8.0,10,0.00,,,0.00,Wunderground v.1.15,2013-06-06 21:32:00,
2013-06-06 15:34:00,82.6,20.5,29.82,NNE,21,5.0,8.0,10,0.00,,,0.00,Wunderground v.1.15,2013-06-06 21:34:00,
2013-06-06 15:36:00,82.6,18.0,29.82,NE,36,4.0,8.0,9,0.00,,,0.00,Wunderground v.1.15,2013-06-06 21:36:00,
2013-06-06 15:38:00,82.6,22.7,29.82,NNW,346,3.0,8.0,11,0.00,,,0.00,Wunderground v.1.15,2013-06-06 21:38:00,
2013-06-06 15:40:00,82.6,18.0,29.82,NW,321,3.0,5.0,9,0.00,,,0.00,Wunderground v.1.15,2013-06-06 21:40:00,
2013-06-06 15:42:00,82.6,20.5,29.82,NNW,331,3.0,5.0,10,0.00,,,0.00,Wunderground v.1.15,2013-06-06 21:42:00,
2013-06-06 15:48:00,82.8,20.6,29.81,WNW,300,4.0,6.0,10,0.00,,,0.00,Wunderground v.1.15,2013-06-06 21:48:00,
2013-06-06 15:50:00,82.8,20.6,29.81,NE,48,3.0,3.0,10,0.00,,,0.00,Wunderground v.1.15,2013-06-06 21:50:00,
2013-06-06 15:56:00,83.6,21.2,29.81,WNW,303,2.0,9.0,10,0.00,,,0.00,Wunderground v.1.15,2013-06-06 21:56:00,
2013-06-06 15:58:00,83.8,21.4,29.81,North,350,2.0,9.0,10,0.00,,,0.00,Wunderground v.1.15,2013-06-06 21:58:00,
2013-06-06 16:00:00,83.4,18.6,29.81,WNW,288,3.0,3.0,9,0.00,,,0.00,Wunderground v.1.15,2013-06-06 22:00:00,
2013-06-06 16:02:00,83.4,18.6,29.81,WNW,288,3.0,3.0,9,0.00,,,0.00,Wunderground v.1.15,2013-06-06 22:02:00,
2013-06-06 16:04:00,83.4,18.6,29.81,NW,311,2.0,7.0,9,0.00,,,0.00,Wunderground v.1.15,2013-06-06 22:04:00,
2013-06-06 16:06:00,83.2,20.9,29.81,NNW,343,3.0,7.0,10,0.00,,,0.00,Wunderground v.1.15,2013-06-06 22:06:00,
2013-06-06 16:08:00,83.0,20.8,29.81,NW,325,3.0,7.0,10,0.00,,,0.00,Wunderground v.1.15,2013-06-06 22:08:00,
2013-06-06 16:10:00,83.0,20.8,29.81,WNW,287,2.0,2.0,10,0.00,,,0.00,Wunderground v.1.15,2013-06-06 22:10:00,
2013-06-06 16:14:00,83.4,25.4,29.81,NNW,340,3.0,9.0,12,0.00,,,0.00,Wunderground v.1.15,2013-06-06 22:14:00,
2013-06-06 16:18:00,83.4,23.4,29.81,NNE,13,3.0,9.0,11,0.00,,,0.00,Wunderground v.1.15,2013-06-06 22:18:00,
2013-06-06 16:20:00,83.2,20.9,29.81,NNW,337,3.0,3.0,10,0.00,,,0.00,Wunderground v.1.15,2013-06-06 22:20:00,
2013-06-06 16:24:00,83.2,23.2,29.81,North,355,4.0,4.0,11,0.00,,,0.00,Wunderground v.1.15,2013-06-06 22:24:00,
2013-06-06 16:26:00,83.2,23.2,29.81,NNW,336,3.0,5.0,11,0.00,,,0.00,Wunderground v.1.15,2013-06-06 22:26:00,
2013-06-06 16:32:00,83.2,25.3,29.81,NW,311,2.0,2.0,12,0.00,,,0.00,Wunderground v.1.15,2013-06-06 22:32:00,
2013-06-06 16:34:00,83.2,25.3,29.81,WNW,294,2.0,6.0,12,0.00,,,0.00,Wunderground v.1.15,2013-06-06 22:34:00,
2013-06-06 16:36:00,83.0,23.0,29.81,WNW,296,3.0,6.0,11,0.00,,,0.00,Wunderground v.1.15,2013-06-06 22:36:00,
2013-06-06 16:40:00,82.8,22.9,29.81,NW,326,3.0,3.0,11,0.00,,,0.00,Wunderground v.1.15,2013-06-06 22:40:00,
2013-06-06 16:42:00,82.8,22.9,29.81,NE,37,4.0,10.0,11,0.00,,,0.00,Wunderground v.1.15,2013-06-06 22:42:00,
2013-06-06 16:46:00,82.6,22.7,29.81,NE,40,3.0,10.0,11,0.00,,,0.00,Wunderground v.1.15,2013-06-06 22:46:00,
2013-06-06 16:48:00,82.8,26.9,29.81,NW,318,2.0,10.0,13,0.00,,,0.00,Wunderground v.1.15,2013-06-06 22:48:00,
2013-06-06 16:50:00,83.0,25.1,29.81,NW,308,2.0,2.0,12,0.00,,,0.00,Wunderground v.1.15,2013-06-06 22:50:00,
2013-06-06 16:52:00,83.2,23.2,29.81,North,351,2.0,2.0,11,0.00,,,0.00,Wunderground v.1.15,2013-06-06 22:52:00,
2013-06-06 16:54:00,83.4,25.4,29.81,NW,325,2.0,6.0,12,0.00,,,0.00,Wunderground v.1.15,2013-06-06 22:54:00,
2013-06-06 16:58:00,83.2,23.2,29.81,North,5,3.0,6.0,11,0.00,,,0.00,Wunderground v.1.15,2013-06-06 22:58:00,
2013-06-06 17:00:00,83.0,23.0,29.81,NNE,19,3.0,3.0,11,0.00,,,0.00,Wunderground v.1.15,2013-06-06 23:00:00,
2013-06-06 17:04:00,82.8,22.9,29.80,NW,325,3.0,7.0,11,0.00,,,0.00,Wunderground v.1.15,2013-06-06 23:04:00,
2013-06-06 17:06:00,82.6,24.8,29.80,NNW,331,4.0,7.0,12,0.00,,,0.00,Wunderground v.1.15,2013-06-06 23:06:00,
2013-06-06 17:10:00,82.8,25.0,29.80,NW,313,3.0,3.0,12,0.00,,,0.00,Wunderground v.1.15,2013-06-06 23:10:00,
2013-06-06 17:12:00,82.6,22.7,29.80,NW,315,4.0,6.0,11,0.00,,,0.00,Wunderground v.1.15,2013-06-06 23:12:00,
2013-06-06 17:14:00,82.4,22.6,29.80,NW,315,3.0,6.0,11,0.00,,,0.00,Wunderground v.1.15,2013-06-06 23:14:00,
2013-06-06 17:16:00,82.2,24.5,29.81,NW,318,3.0,9.0,12,0.00,,,0.00,Wunderground v.1.15,2013-06-06 23:16:00,
2013-06-06 17:20:00,82.4,24.7,29.81,NNW,345,3.0,3.0,12,0.00,,,0.00,Wunderground v.1.15,2013-06-06 23:20:00,
2013-06-06 17:22:00,82.6,26.7,29.81,NNW,331,3.0,3.0,13,0.00,,,0.00,Wunderground v.1.15,2013-06-06 23:22:00,
2013-06-06 17:26:00,83.2,25.3,29.81,NE,38,2.0,6.0,12,0.00,,,0.00,Wunderground v.1.15,2013-06-06 23:26:00,
2013-06-06 17:28:00,83.0,25.1,29.81,NNW,346,2.0,6.0,12,0.00,,,0.00,Wunderground v.1.15,2013-06-06 23:28:00,
2013-06-06 17:30:00,83.0,23.0,29.81,NW,304,2.0,2.0,11,0.00,,,0.00,Wunderground v.1.15,2013-06-06 23:30:00,
2013-06-06 17:32:00,82.8,22.9,29.80,NNE,22,2.0,2.0,11,0.00,,,0.00,Wunderground v.1.15,2013-06-06 23:32:00,
2013-06-06 17:34:00,82.8,25.0,29.80,NW,304,2.0,6.0,12,0.00,,,0.00,Wunderground v.1.15,2013-06-06 23:34:00,
2013-06-06 17:36:00,82.8,25.0,29.80,NW,307,2.0,6.0,12,0.00,,,0.00,Wunderground v.1.15,2013-06-06 23:36:00,
2013-06-06 17:40:00,82.8,25.0,29.80,WNW,288,2.0,2.0,12,0.00,,,0.00,Wunderground v.1.15,2013-06-06 23:40:00,
2013-06-06 17:42:00,82.8,25.0,29.80,WNW,298,2.0,2.0,12,0.00,,,0.00,Wunderground v.1.15,2013-06-06 23:42:00,
2013-06-06 17:46:00,83.0,27.1,29.79,NW,319,3.0,8.0,13,0.00,,,0.00,Wunderground v.1.15,2013-06-06 23:46:00,
2013-06-06 17:48:00,83.0,25.1,29.79,NW,309,3.0,8.0,12,0.00,,,0.00,Wunderground v.1.15,2013-06-06 23:48:00,
2013-06-06 17:54:00,82.8,25.0,29.79,NW,325,3.0,3.0,12,0.00,,,0.00,Wunderground v.1.15,2013-06-06 23:54:00,
2013-06-06 18:00:00,82.8,25.0,29.79,NNE,19,3.0,4.0,12,0.00,,,0.00,Wunderground v.1.15,2013-06-07 00:00:00,
2013-06-06 18:02:00,82.6,24.8,29.79,North,32767,3.0,4.0,12,0.00,,,0.00,Wunderground v.1.15,2013-06-07 00:02:00,
2013-06-06 18:04:00,82.6,24.8,29.79,NNE,29,3.0,4.0,12,0.00,,,0.00,Wunderground v.1.15,2013-06-07 00:04:00,
2013-06-06 18:08:00,82.4,24.7,29.79,NNE,12,2.0,5.0,12,0.00,,,0.00,Wunderground v.1.15,2013-06-07 00:08:00,
2013-06-06 18:12:00,82.4,24.7,29.79,NW,305,2.0,2.0,12,0.00,,,0.00,Wunderground v.1.15,2013-06-07 00:12:00,
2013-06-06 18:14:00,82.4,24.7,29.79,NW,321,2.0,2.0,12,0.00,,,0.00,Wunderground v.1.15,2013-06-07 00:14:00,
2013-06-06 18:16:00,82.2,24.5,29.77,NW,324,2.0,3.0,12,0.00,,,0.00,Wunderground v.1.15,2013-06-07 00:16:00,
2013-06-06 18:18:00,82.2,24.5,29.77,NW,318,2.0,3.0,12,0.00,,,0.00,Wunderground v.1.15,2013-06-07 00:18:00,
2013-06-06 18:20:00,82.2,24.5,29.77,NNW,333,2.0,5.0,12,0.00,,,0.00,Wunderground v.1.15,2013-06-07 00:20:00,
2013-06-06 18:22:00,82.0,22.3,29.77,NW,324,3.0,5.0,11,0.00,,,0.00,Wunderground v.1.15,2013-06-07 00:22:00,
2013-06-06 18:26:00,81.8,24.2,29.77,NW,311,3.0,5.0,12,0.00,,,0.00,Wunderground v.1.15,2013-06-07 00:26:00,
2013-06-06 18:28:00,81.8,24.2,29.77,NNW,340,2.0,5.0,12,0.00,,,0.00,Wunderground v.1.15,2013-06-07 00:28:00,
2013-06-06 18:32:00,81.8,24.2,29.77,NNW,327,2.0,6.0,12,0.00,,,0.00,Wunderground v.1.15,2013-06-07 00:32:00,
2013-06-06 18:36:00,81.6,22.0,29.77,NNW,332,4.0,7.0,11,0.00,,,0.00,Wunderground v.1.15,2013-06-07 00:36:00,
2013-06-06 18:38:00,81.4,23.9,29.77,NNW,329,4.0,7.0,12,0.00,,,0.00,Wunderground v.1.15,2013-06-07 00:38:00,
2013-06-06 18:42:00,81.1,23.7,29.77,NW,307,4.0,4.0,12,0.00,,,0.00,Wunderground v.1.15,2013-06-07 00:42:00,
2013-06-06 18:44:00,81.1,23.7,29.77,NW,323,3.0,4.0,12,0.00,,,0.00,Wunderground v.1.15,2013-06-07 00:44:00,
2013-06-06 18:46:00,80.9,23.5,29.79,North,32767,3.0,4.0,12,0.00,,,0.00,Wunderground v.1.15,2013-06-07 00:46:00,
2013-06-06 18:48:00,80.9,23.5,29.79,NW,321,2.0,4.0,12,0.00,,,0.00,Wunderground v.1.15,2013-06-07 00:48:00,
2013-06-06 18:52:00,80.7,23.3,29.79,NW,325,2.0,4.0,12,0.00,,,0.00,Wunderground v.1.15,2013-06-07 00:52:00,
2013-06-06 18:56:00,80.9,21.4,29.79,North,10,2.0,6.0,11,0.00,,,0.00,Wunderground v.1.15,2013-06-07 00:56:00,
2013-06-06 18:58:00,80.9,23.5,29.79,NW,307,3.0,6.0,12,0.00,,,0.00,Wunderground v.1.15,2013-06-07 00:58:00,
2013-06-06 19:00:00,81.1,23.7,29.79,NNW,339,3.0,3.0,12,0.00,,,0.00,Wunderground v.1.15,2013-06-07 01:00:00,
2013-06-06 19:04:00,81.4,21.8,29.79,NNW,339,2.0,3.0,11,0.00,,,0.00,Wunderground v.1.15,2013-06-07 01:04:00,
2013-06-06 19:06:00,81.4,21.8,29.79,NNW,339,2.0,3.0,11,0.00,,,0.00,Wunderground v.1.15,2013-06-07 01:06:00,
2013-06-06 19:10:00,81.4,23.9,29.79,NNW,339,0.0,0.0,12,0.00,,,0.00,Wunderground v.1.15,2013-06-07 01:10:00,
2013-06-06 19:12:00,81.4,23.9,29.79,NNW,339,0.0,0.0,12,0.00,,,0.00,Wunderground v.1.15,2013-06-07 01:12:00,
2013-06-06 19:16:00,81.6,19.7,29.73,NNW,339,1.0,1.0,10,0.00,,,0.00,Wunderground v.1.15,2013-06-07 01:16:00,
2013-06-06 19:20:00,81.6,24.0,29.73,West,273,1.0,1.0,12,0.00,,,0.00,Wunderground v.1.15,2013-06-07 01:20:00,
2013-06-06 19:22:00,81.6,22.0,29.73,NW,311,1.0,1.0,11,0.00,,,0.00,Wunderground v.1.15,2013-06-07 01:22:00,
2013-06-06 19:24:00,81.6,24.0,29.73,NW,312,1.0,1.0,12,0.00,,,0.00,Wunderground v.1.15,2013-06-07 01:24:00,
2013-06-06 19:28:00,81.6,22.0,29.73,NNW,331,1.0,4.0,11,0.00,,,0.00,Wunderground v.1.15,2013-06-07 01:28:00,
2013-06-06 19:30:00,81.6,24.0,29.73,NNW,331,1.0,1.0,12,0.00,,,0.00,Wunderground v.1.15,2013-06-07 01:30:00,
2013-06-06 19:32:00,81.4,23.9,29.73,NNW,327,1.0,1.0,12,0.00,,,0.00,Wunderground v.1.15,2013-06-07 01:32:00,
2013-06-06 19:36:00,81.4,23.9,29.73,NNW,329,2.0,3.0,12,0.00,,,0.00,Wunderground v.1.15,2013-06-07 01:36:00,
2013-06-06 19:42:00,81.1,23.7,29.73,NNW,327,1.0,2.0,12,0.00,,,0.00,Wunderground v.1.15,2013-06-07 01:42:00,
2013-06-06 19:44:00,80.9,25.4,29.73,NNW,327,1.0,2.0,13,0.00,,,0.00,Wunderground v.1.15,2013-06-07 01:44:00,
2013-06-06 19:48:00,80.3,24.9,29.73,NNW,327,1.0,2.0,13,0.00,,,0.00,Wunderground v.1.15,2013-06-07 01:48:00,
2013-06-06 19:50:00,80.1,24.8,29.73,NNW,327,1.0,1.0,13,0.00,,,0.00,Wunderground v.1.15,2013-06-07 01:50:00,
2013-06-06 19:54:00,79.8,26.3,29.73,NNW,327,2.0,2.0,14,0.00,,,0.00,Wunderground v.1.15,2013-06-07 01:54:00,
2013-06-06 19:56:00,79.6,26.2,29.73,NW,317,2.0,2.0,14,0.00,,,0.00,Wunderground v.1.15,2013-06-07 01:56:00,
2013-06-06 19:58:00,79.4,26.0,29.73,NW,319,2.0,2.0,14,0.00,,,0.00,Wunderground v.1.15,2013-06-07 01:58:00,
2013-06-06 20:02:00,79.0,27.4,29.75,NW,317,2.0,3.0,15,0.00,,,0.00,Wunderground v.1.15,2013-06-07 02:02:00,
2013-06-06 20:04:00,78.8,27.2,29.75,NW,317,1.0,3.0,15,0.00,,,0.00,Wunderground v.1.15,2013-06-07 02:04:00,
2013-06-06 20:08:00,78.5,28.5,29.75,NW,317,1.0,4.0,16,0.00,,,0.00,Wunderground v.1.15,2013-06-07 02:08:00,
2013-06-06 20:10:00,78.3,28.4,29.75,NW,317,1.0,1.0,16,0.00,,,0.00,Wunderground v.1.15,2013-06-07 02:10:00,
2013-06-06 20:16:00,77.9,28.1,29.73,NW,317,1.0,1.0,16,0.00,,,0.00,Wunderground v.1.15,2013-06-07 02:16:00,
2013-06-06 20:18:00,77.7,27.9,29.73,NW,317,1.0,1.0,16,0.00,,,0.00,Wunderground v.1.15,2013-06-07 02:18:00,
2013-06-06 20:22:00,77.4,27.7,29.73,NW,317,0.0,0.0,16,0.00,,,0.00,Wunderground v.1.15,2013-06-07 02:22:00,
2013-06-06 20:28:00,76.7,28.6,29.73,NW,317,0.0,0.0,17,0.00,,,0.00,Wunderground v.1.15,2013-06-07 02:28:00,
2013-06-06 20:30:00,76.5,28.4,29.73,NW,317,0.0,0.0,17,0.00,,,0.00,Wunderground v.1.15,2013-06-07 02:30:00,
2013-06-06 20:34:00,76.1,29.5,29.75,NW,317,0.0,1.0,18,0.00,,,0.00,Wunderground v.1.15,2013-06-07 02:34:00,
2013-06-06 20:36:00,75.8,29.2,29.75,NW,317,0.0,1.0,18,0.00,,,0.00,Wunderground v.1.15,2013-06-07 02:36:00,
2013-06-06 20:38:00,75.6,29.1,29.75,NW,317,0.0,1.0,18,0.00,,,0.00,Wunderground v.1.15,2013-06-07 02:38:00,
2013-06-06 20:40:00,75.4,30.2,29.75,NW,317,0.0,0.0,19,0.00,,,0.00,Wunderground v.1.15,2013-06-07 02:40:00,
2013-06-06 20:44:00,74.9,29.8,29.75,NW,317,0.0,0.0,19,0.00,,,0.00,Wunderground v.1.15,2013-06-07 02:44:00,
2013-06-06 20:46:00,74.6,29.6,29.76,NW,317,0.0,0.0,19,0.00,,,0.00,Wunderground v.1.15,2013-06-07 02:46:00,
2013-06-06 20:48:00,74.4,29.4,29.76,NW,317,0.0,0.0,19,0.00,,,0.00,Wunderground v.1.15,2013-06-07 02:48:00,
2013-06-06 20:50:00,74.0,29.1,29.76,NW,317,0.0,0.0,19,0.00,,,0.00,Wunderground v.1.15,2013-06-07 02:50:00,
2013-06-06 20:52:00,73.9,30.3,29.76,NW,317,0.0,0.0,20,0.00,,,0.00,Wunderground v.1.15,2013-06-07 02:52:00,
2013-06-06 20:56:00,73.5,29.9,29.76,NW,317,0.0,0.0,20,0.00,,,0.00,Wunderground v.1.15,2013-06-07 02:56:00,
2013-06-06 20:58:00,73.3,28.5,29.76,NW,317,0.0,0.0,19,0.00,,,0.00,Wunderground v.1.15,2013-06-07 02:58:00,
2013-06-06 21:00:00,73.3,29.8,29.76,NW,317,0.0,0.0,20,0.00,,,0.00,Wunderground v.1.15,2013-06-07 03:00:00,
2013-06-06 21:02:00,73.3,29.8,29.77,NW,317,0.0,0.0,20,0.00,,,0.00,Wunderground v.1.15,2013-06-07 03:02:00,
2013-06-06 21:08:00,73.0,30.7,29.77,NW,317,0.0,1.0,21,0.00,,,0.00,Wunderground v.1.15,2013-06-07 03:08:00,
2013-06-06 21:12:00,72.8,29.4,29.77,NW,317,0.0,0.0,20,0.00,,,0.00,Wunderground v.1.15,2013-06-07 03:12:00,
2013-06-06 21:14:00,72.7,30.5,29.77,NW,317,0.0,0.0,21,0.00,,,0.00,Wunderground v.1.15,2013-06-07 03:14:00,
2013-06-06 21:20:00,72.0,31.0,29.75,NW,317,0.0,0.0,22,0.00,,,0.00,Wunderground v.1.15,2013-06-07 03:20:00,
2013-06-06 21:22:00,71.8,30.9,29.75,NW,317,0.0,0.0,22,0.00,,,0.00,Wunderground v.1.15,2013-06-07 03:22:00,
2013-06-06 21:24:00,71.6,30.7,29.75,NW,317,0.0,0.0,22,0.00,,,0.00,Wunderground v.1.15,2013-06-07 03:24:00,
2013-06-06 21:26:00,71.5,30.6,29.75,NW,317,0.0,0.0,22,0.00,,,0.00,Wunderground v.1.15,2013-06-07 03:26:00,
2013-06-06 21:30:00,70.8,32.2,29.75,NW,317,0.0,0.0,24,0.00,,,0.00,Wunderground v.1.15,2013-06-07 03:30:00,
2013-06-06 21:32:00,70.6,32.0,29.77,NW,317,0.0,0.0,24,0.00,,,0.00,Wunderground v.1.15,2013-06-07 03:32:00,
2013-06-06 21:34:00,70.3,32.8,29.77,NW,317,0.0,0.0,25,0.00,,,0.00,Wunderground v.1.15,2013-06-07 03:34:00,
2013-06-06 21:36:00,70.1,32.6,29.77,NW,317,0.0,0.0,25,0.00,,,0.00,Wunderground v.1.15,2013-06-07 03:36:00,
2013-06-06 21:42:00,69.3,31.9,29.77,NW,317,0.0,0.0,25,0.00,,,0.00,Wunderground v.1.15,2013-06-07 03:42:00,
2013-06-06 21:44:00,68.9,32.6,29.77,NW,317,0.0,0.0,26,0.00,,,0.00,Wunderground v.1.15,2013-06-07 03:44:00,
2013-06-06 21:46:00,68.8,32.5,29.79,NW,317,0.0,0.0,26,0.00,,,0.00,Wunderground v.1.15,2013-06-07 03:46:00,
2013-06-06 21:48:00,68.4,32.1,29.79,NW,317,0.0,0.0,26,0.00,,,0.00,Wunderground v.1.15,2013-06-07 03:48:00,
2013-06-06 21:52:00,68.1,32.8,29.79,NW,317,0.0,0.0,27,0.00,,,0.00,Wunderground v.1.15,2013-06-07 03:52:00,
2013-06-06 21:54:00,67.9,32.7,29.79,NW,317,0.0,0.0,27,0.00,,,0.00,Wunderground v.1.15,2013-06-07 03:54:00,
2013-06-06 21:58:00,67.4,33.1,29.79,NW,317,0.0,0.0,28,0.00,,,0.00,Wunderground v.1.15,2013-06-07 03:58:00,
2013-06-06 22:02:00,66.6,33.3,29.81,NW,317,0.0,0.0,29,0.00,,,0.00,Wunderground v.1.15,2013-06-07 04:02:00,
2013-06-06 22:04:00,66.0,34.5,29.81,NW,317,0.0,0.0,31,0.00,,,0.00,Wunderground v.1.15,2013-06-07 04:04:00,
2013-06-06 22:06:00,65.5,34.0,29.81,NW,317,0.0,0.0,31,0.00,,,0.00,Wunderground v.1.15,2013-06-07 04:06:00,
2013-06-06 22:08:00,64.8,34.2,29.81,NW,317,0.0,0.0,32,0.00,,,0.00,Wunderground v.1.15,2013-06-07 04:08:00,
2013-06-06 22:12:00,64.0,35.0,29.81,NW,317,0.0,0.0,34,0.00,,,0.00,Wunderground v.1.15,2013-06-07 04:12:00,
2013-06-06 22:14:00,63.5,35.3,29.81,NW,317,0.0,0.0,35,0.00,,,0.00,Wunderground v.1.15,2013-06-07 04:14:00,
2013-06-06 22:20:00,62.7,34.6,29.82,NW,317,0.0,1.0,35,0.00,,,0.00,Wunderground v.1.15,2013-06-07 04:20:00,
2013-06-06 22:22:00,62.4,34.4,29.82,NW,317,0.0,1.0,35,0.00,,,0.00,Wunderground v.1.15,2013-06-07 04:22:00,
2013-06-06 22:26:00,62.1,34.8,29.82,NW,317,0.0,1.0,36,0.00,,,0.00,Wunderground v.1.15,2013-06-07 04:26:00,
2013-06-06 22:28:00,62.0,35.4,29.82,NW,317,0.0,1.0,37,0.00,,,0.00,Wunderground v.1.15,2013-06-07 04:28:00,
2013-06-06 22:32:00,61.6,33.7,29.82,NW,317,0.0,0.0,35,0.00,,,0.00,Wunderground v.1.15,2013-06-07 04:32:00,
2013-06-06 22:34:00,61.6,33.7,29.82,NW,317,0.0,0.0,35,0.00,,,0.00,Wunderground v.1.15,2013-06-07 04:34:00,
2013-06-06 22:36:00,61.6,32.9,29.82,NW,317,0.0,0.0,34,0.00,,,0.00,Wunderground v.1.15,2013-06-07 04:36:00,
2013-06-06 22:38:00,61.6,32.2,29.82,NW,317,0.0,0.0,33,0.00,,,0.00,Wunderground v.1.15,2013-06-07 04:38:00,
2013-06-06 22:42:00,61.6,31.4,29.82,NW,317,0.0,0.0,32,0.00,,,0.00,Wunderground v.1.15,2013-06-07 04:42:00,
2013-06-06 22:44:00,61.6,31.4,29.82,NW,317,0.0,3.0,32,0.00,,,0.00,Wunderground v.1.15,2013-06-07 04:44:00,
2013-06-06 22:46:00,61.8,31.6,29.82,NW,317,0.0,3.0,32,0.00,,,0.00,Wunderground v.1.15,2013-06-07 04:46:00,
2013-06-06 22:48:00,62.0,31.0,29.82,NW,317,0.0,3.0,31,0.00,,,0.00,Wunderground v.1.15,2013-06-07 04:48:00,
2013-06-06 22:52:00,62.0,31.8,29.82,NW,317,0.0,0.0,32,0.00,,,0.00,Wunderground v.1.15,2013-06-07 04:52:00,
2013-06-06 22:54:00,62.1,31.9,29.82,NW,317,0.0,0.0,32,0.00,,,0.00,Wunderground v.1.15,2013-06-07 04:54:00,
2013-06-06 22:58:00,62.0,32.5,29.82,NW,317,0.0,0.0,33,0.00,,,0.00,Wunderground v.1.15,2013-06-07 04:58:00,
2013-06-06 23:02:00,61.8,33.1,29.83,NW,317,0.0,0.0,34,0.00,,,0.00,Wunderground v.1.15,2013-06-07 05:02:00,
2013-06-06 23:04:00,61.6,33.7,29.83,NW,317,0.0,0.0,35,0.00,,,0.00,Wunderground v.1.15,2013-06-07 05:04:00,
2013-06-06 23:06:00,61.5,33.6,29.83,NW,317,0.0,0.0,35,0.00,,,0.00,Wunderground v.1.15,2013-06-07 05:06:00,
2013-06-06 23:08:00,61.3,33.4,29.83,NW,317,0.0,0.0,35,0.00,,,0.00,Wunderground v.1.15,2013-06-07 05:08:00,
2013-06-06 23:10:00,61.2,33.3,29.83,NW,317,0.0,0.0,35,0.00,,,0.00,Wunderground v.1.15,2013-06-07 05:10:00,
2013-06-06 23:14:00,61.0,33.1,29.83,NW,317,0.0,0.0,35,0.00,,,0.00,Wunderground v.1.15,2013-06-07 05:14:00,
2013-06-06 23:16:00,60.9,33.0,29.82,NW,317,0.0,0.0,35,0.00,,,0.00,Wunderground v.1.15,2013-06-07 05:16:00,
2013-06-06 23:18:00,60.7,32.1,29.82,NW,317,0.0,0.0,34,0.00,,,0.00,Wunderground v.1.15,2013-06-07 05:18:00,
2013-06-06 23:22:00,60.9,32.3,29.82,NW,317,0.0,0.0,34,0.00,,,0.00,Wunderground v.1.15,2013-06-07 05:22:00,
2013-06-06 23:26:00,60.9,31.6,29.82,NW,317,0.0,0.0,33,0.00,,,0.00,Wunderground v.1.15,2013-06-07 05:26:00,
2013-06-06 23:28:00,60.7,32.1,29.82,NW,317,0.0,0.0,34,0.00,,,0.00,Wunderground v.1.15,2013-06-07 05:28:00,
2013-06-06 23:30:00,60.7,32.1,29.82,NW,317,0.0,0.0,34,0.00,,,0.00,Wunderground v.1.15,2013-06-07 05:30:00,
2013-06-06 23:34:00,60.5,32.0,29.83,NW,317,0.0,0.0,34,0.00,,,0.00,Wunderground v.1.15,2013-06-07 05:34:00,
2013-06-06 23:36:00,60.4,32.6,29.83,NW,317,0.0,0.0,35,0.00,,,0.00,Wunderground v.1.15,2013-06-07 05:36:00,
2013-06-06 23:38:00,60.4,31.9,29.83,NW,317,0.0,0.0,34,0.00,,,0.00,Wunderground v.1.15,2013-06-07 05:38:00,
2013-06-06 23:44:00,60.2,31.7,29.83,NW,317,0.0,0.0,34,0.00,,,0.00,Wunderground v.1.15,2013-06-07 05:44:00,
2013-06-06 23:46:00,60.2,31.7,29.83,NW,317,0.0,0.0,34,0.00,,,0.00,Wunderground v.1.15,2013-06-07 05:46:00,
2013-06-06 23:48:00,60.2,31.7,29.83,NW,317,0.0,0.0,34,0.00,,,0.00,Wunderground v.1.15,2013-06-07 05:48:00,
2013-06-06 23:50:00,60.2,31.0,29.83,NW,317,0.0,0.0,33,0.00,,,0.00,Wunderground v.1.15,2013-06-07 05:50:00,
2013-06-06 23:54:00,60.2,31.0,29.83,NW,317,0.0,0.0,33,0.00,,,0.00,Wunderground v.1.15,2013-06-07 05:54:00,
2013-06-06 23:56:00,60.2,31.7,29.83,NW,317,0.0,1.0,34,0.00,,,0.00,Wunderground v.1.15,2013-06-07 05:56:00,
2013-06-06 23:58:00,60.2,31.7,29.83,NW,317,0.0,1.0,34,0.00,,,0.00,Wunderground v.1.15,2013-06-07 05:58:00,